Back to catalog

STARLINK-5049

AliveCommunicationsVLEO
NORAD 57246·PAYLOAD·🇺🇸 United States

Launched Jul 7, 2023 from Vandenberg Space Force Base

Loading…

Next Passes (next 24 hours)

TLE

FreshSource: CelesTrak SupGP

Epoch: Sep 14, 2026, 20:38 UTC

1 57246C 23094AE  26257.86020833  .00054100  00000+0  19596-2 0  2572
2 57246  43.0038  31.1012 0002187 278.9016 182.3633 15.27548173    13

Track STARLINK-5049 in real time with AllMySat

Download on the App Store